Regional Weather Roundup
Issued by NWS

Home | Current Version | Previous Version | Text Only | Print | Product List | Glossary On
Versions: 1 2 3 4 5 6 7 8 9 10 11 12 13 14 15 16 17 18 19 20 21 22 23 24 25 26 27 28 29 30 31 32 33 34 35 36 37 38 39 40 41 42 43 44 45 46 47 48 49 50
000
ASUS45 KSLC 310610
RWRUT

UTAH REGIONAL WEATHER ROUNDUP
NATIONAL WEATHER SERVICE SALT LAKE CITY UT
1200 AM MDT SUN AUG 31 2014

UTZ001>011-023>025-310700-

NORTHERN UTAH

CITY           SKY/WX    TMP DP  RH WIND       PRES   REMARKS
HILL AFB       CLOUDY    68  49  50 N8        29.86R
LOGAN          CLOUDY    63  52  67 NW3       29.89R
OGDEN          CLOUDY    69  46  43 N9        29.83S
PROVO AIRPORT  CLOUDY    70  52  52 W10       29.89R
SALT LAKE CITY CLOUDY    70  47  43 SE8       29.80F
VERNAL         MOCLDY    62  46  55 N8        29.87F
WENDOVER       CLOUDY    75  39  27 NE5       29.84F
HEBER CITY     DRIZZLE   63  45  51 SE8       29.94R
WEST JORDAN    CLEAR     70  52  52 SE6       29.85F

$$

UTZ012>022-026-027-310700-

SOUTHERN UTAH

CITY           SKY/WX    TMP DP  RH WIND       PRES   REMARKS
BRYCE CANYON   CLEAR     50  36  58 SW6       30.16F
CEDAR CITY     PTCLDY    74  30  19 S12       29.97F
MILFORD        PTCLDY    73  32  22 S16       29.90S
MOAB/CYNLANDS  CLEAR     77  35  21 SW13      29.82F
PRICE          MOCLDY    65  41  41 NE6       29.93S
ST GEORGE      CLOUDY    86  36  16 S10       29.80F

$$

REGIONAL REPORTS     COLORADO/ARIZONA

CITY           SKY/WX    TMP DP  RH WIND       PRES   REMARKS
CRAIG, CO      MOCLDY    55  49  80 SE5       30.01R
GRAND JUNCTION PTCLDY    72  43  35 E15       29.87F
RIFLE          PTCLDY    59  50  72 W3        29.96F
MONTROSE       CLEAR     65  40  39 SE12      30.02F
CORTEZ         CLEAR     56  44  64 E7        30.06F
PAGE, AZ       PTCLDY    81  34  18 S9        29.91F
GRAND CANYON     N/A    N/A N/A N/A MISG        N/A
KINGMAN        PTCLDY    79  35  20 S9        29.90S
FLAGSTAFF      PTCLDY    60  39  45 SW5       30.21F

$$

REGIONAL REPORTS    NEVADA/IDAHO/WYOMING

CITY           SKY/WX    TMP DP  RH WIND       PRES   REMARKS
LAS VEGAS, NV  MOCLDY    92  29  10 S13       29.68F
ELY            CLOUDY    65  26  23 CALM      30.01S
ELKO           CLOUDY    64  32  30 S6        29.93R
POCATELLO, ID  CLOUDY    64  42  44 SW12      29.89R
BURLEY         CLOUDY    59  47  64 W16G26    29.93R
EVANSTON, WY   CLOUDY    58  43  57 SE7       30.00F
ROCK SPRINGS   LGT RAIN  59  43  55 W20G47    30.02R SQUALL

$$



USA.gov is the U.S. government's official web portal to all federal, state and local government web resources and services.